Antigo, WI

3:14 PM CDT on August 28, 2016 (GMT -0500)
Langlade County

Weather History for KAIG - February, 2014

Change the Weather History Date:

Sunday, February 23, 2014

  Actual Average Record
Temperature  
Mean Temperature 6 °F -  
Max Temperature 14 °F 32 °F 52 °F (1984)
Min Temperature -2 °F 12 °F -20 °F (1967)
Degree Days  
Heating Degree Days 59    
Moisture  
Dew Point -1 °F    
Average Humidity 72    
Maximum Humidity 85    
Minimum Humidity 61    
Precipitation  
Precipitation 0.00 in - - ()
Sea Level Pressure  
Sea Level Pressure 29.95 in    
Wind  
Wind Speed 14 mph (West)    
Max Wind Speed 22 mph    
Max Gust Speed 30 mph    
Visibility 10 miles    
Events      
Averages and records for this station are not official NWS values.
T = Trace of Precipitation, MM = Missing Value Source: NWS Daily Summary

Daily Weather History Graph

Daily Weather History Graph

Search for Another Location

Airport or City:

Trip Planner

Search our weather history database for the weather conditions in past years. The results will help you decide how hot, cold, wet, or windy it might be!

Date:

Astronomy

Feb. 23, 2014 Rise Set
Actual Time 6:44 AM CST 5:35 PM CST
Civil Twilight 6:14 AM CST 6:05 PM CST
Nautical Twilight 5:40 AM CST 6:39 PM CST
Astronomical Twilight 5:06 AM CST 7:13 PM CST
Moon 1:51 AM CST (2/23) 11:29 AM CST (2/23)
Length of Visible Light 11h 50m
Length of Day
10h 50m
Last Quarter, 38% of the Moon is Illuminated
Feb 23
Last Quarter
Mar 1
New
Mar 8
First Quarter
Mar 16
Full
Mar 23
Last Quarter

Hourly Weather History & Observations

Time (CST) Temp. Windchill Dew Point Humidity Pressure Visibility Wind Dir Wind Speed Gust Speed Precip Events Conditions
12:15 AM 3.2 °F -13.1 °F -1.3 °F 82% 29.88 in 10.0 mi West 11.5 mph 20.7 mph N/A   Unknown
12:35 AM 2.8 °F -15.0 °F -1.8 °F 81% 29.89 in 10.0 mi West 13.8 mph - N/A   Unknown
12:55 AM 2.8 °F -17.0 °F -2.2 °F 79% 29.89 in 10.0 mi West 17.3 mph 20.7 mph N/A   Unknown
1:15 AM 2.7 °F -16.6 °F -2.2 °F 80% 29.90 in 10.0 mi West 16.1 mph 21.9 mph N/A   Unknown
1:35 AM 2.3 °F -15.7 °F -2.4 °F 81% 29.91 in 10.0 mi West 13.8 mph 23.0 mph N/A   Unknown
1:55 AM 1.9 °F -17.5 °F -2.9 °F 80% 29.91 in 10.0 mi West 16.1 mph 21.9 mph N/A   Unknown
2:15 AM 1.8 °F -17.8 °F -3.1 °F 80% 29.91 in 10.0 mi West 16.1 mph 21.9 mph N/A   Unknown
2:35 AM 1.4 °F -18.8 °F -3.3 °F 81% 29.91 in 10.0 mi West 17.3 mph 24.2 mph N/A   Unknown
2:55 AM 0.9 °F -16.8 °F -3.6 °F 81% 29.91 in 10.0 mi West 12.7 mph 19.6 mph N/A   Unknown
3:15 AM 0.5 °F -17.3 °F -4.0 °F 81% 29.91 in 10.0 mi West 12.7 mph 19.6 mph N/A   Unknown
3:35 AM 0.1 °F -17.7 °F -4.0 °F 83% 29.92 in 10.0 mi West 12.7 mph - N/A   Unknown
3:55 AM 0.1 °F -17.7 °F -4.0 °F 83% 29.92 in 10.0 mi West 12.7 mph - N/A   Unknown
4:15 AM -0.4 °F -19.2 °F -4.4 °F 83% 29.93 in 10.0 mi WNW 13.8 mph 18.4 mph N/A   Unknown
4:35 AM -0.6 °F -17.8 °F -4.5 °F 83% 29.93 in 10.0 mi WNW 11.5 mph - N/A   Unknown
4:55 AM -1.1 °F -18.5 °F -5.1 °F 83% 29.94 in 10.0 mi West 11.5 mph - N/A   Unknown
5:15 AM -0.9 °F -19.9 °F -4.9 °F 83% 29.94 in 10.0 mi WNW 13.8 mph - N/A   Unknown
5:35 AM -1.3 °F -20.3 °F -5.3 °F 83% 29.95 in 10.0 mi West 13.8 mph - N/A   Unknown
5:55 AM -1.3 °F -19.6 °F -5.3 °F 83% 29.95 in 10.0 mi West 12.7 mph - N/A   Unknown
6:15 AM -1.7 °F -19.2 °F -5.6 °F 83% 29.95 in 10.0 mi West 11.5 mph 17.3 mph N/A   Unknown
6:35 AM -2.2 °F -18.9 °F -6.0 °F 84% 29.95 in 10.0 mi West 10.4 mph - N/A   Unknown
6:55 AM -2.7 °F -19.6 °F -6.2 °F 85% 29.95 in 10.0 mi West 10.4 mph - N/A   Unknown
7:15 AM -2.4 °F -17.1 °F -6.0 °F 85% 29.95 in 10.0 mi West 8.1 mph - N/A   Unknown
7:35 AM -2.2 °F -18.0 °F -6.2 °F 83% 29.96 in 10.0 mi West 9.2 mph - N/A   Unknown
7:55 AM -0.9 °F -15.3 °F -5.4 °F 81% 29.96 in 10.0 mi West 8.1 mph - N/A   Unknown
8:15 AM 0.3 °F -15.8 °F -4.9 °F 79% 29.96 in 10.0 mi West 10.4 mph 16.1 mph N/A   Unknown
8:35 AM 1.4 °F -15.3 °F -4.4 °F 77% 29.96 in 10.0 mi West 11.5 mph 17.3 mph N/A   Unknown
8:55 AM 2.3 °F -18.2 °F -4.0 °F 75% 29.96 in 10.0 mi West 18.4 mph 23.0 mph N/A   Unknown
9:15 AM 3.6 °F -15.4 °F -3.3 °F 73% 29.96 in 10.0 mi West 16.1 mph 19.6 mph N/A   Unknown
9:35 AM 4.6 °F -12.0 °F -2.9 °F 71% 29.96 in 10.0 mi West 12.7 mph - N/A   Unknown
9:55 AM 5.9 °F -11.2 °F -2.2 °F 69% 29.96 in 10.0 mi West 13.8 mph - N/A   Unknown
10:15 AM 7.5 °F -8.4 °F -1.1 °F 68% 29.96 in 7.0 mi West 12.7 mph 25.3 mph N/A   Unknown
10:35 AM 8.2 °F -10.0 °F -0.8 °F 67% 29.96 in 10.0 mi West 17.3 mph 23.0 mph N/A   Unknown
10:55 AM 9.5 °F -6.6 °F 0.1 °F 66% 29.96 in 10.0 mi West 13.8 mph 18.4 mph N/A   Unknown
11:15 AM 10.0 °F -7.1 °F 0.3 °F 65% 29.96 in 10.0 mi West 16.1 mph 23.0 mph N/A   Unknown
11:35 AM 10.9 °F -5.9 °F 1.0 °F 64% 29.96 in 10.0 mi West 16.1 mph 21.9 mph N/A   Unknown
11:55 AM 12.0 °F -3.4 °F 1.2 °F 62% 29.95 in 10.0 mi West 13.8 mph 18.4 mph N/A   Unknown
12:15 PM 12.6 °F -3.8 °F 1.6 °F 62% 29.95 in 10.0 mi West 16.1 mph 23.0 mph N/A   Unknown
12:35 PM 12.7 °F -4.6 °F 1.8 °F 62% 29.94 in 10.0 mi West 18.4 mph 25.3 mph N/A   Unknown
12:55 PM 13.1 °F -3.1 °F 1.8 °F 61% 29.94 in 10.0 mi West 16.1 mph 25.3 mph N/A   Unknown
1:15 PM 13.6 °F -4.4 °F 2.3 °F 61% 29.94 in 10.0 mi West 20.7 mph 26.5 mph N/A   Unknown
1:35 PM 14.0 °F -2.0 °F 2.7 °F 61% 29.94 in 10.0 mi West 16.1 mph 25.3 mph N/A   Unknown
1:55 PM 13.8 °F -3.7 °F 2.8 °F 62% 29.94 in 10.0 mi West 19.6 mph 27.6 mph N/A   Unknown
2:15 PM 14.0 °F -3.0 °F 3.2 °F 62% 29.94 in 10.0 mi West 18.4 mph 27.6 mph N/A   Unknown
2:35 PM 14.0 °F -2.5 °F 3.6 °F 63% 29.94 in 10.0 mi West 17.3 mph 29.9 mph N/A   Unknown
2:55 PM 14.7 °F -2.5 °F 3.7 °F 62% 29.93 in 10.0 mi West 19.6 mph 26.5 mph N/A   Unknown
3:15 PM 14.7 °F -2.0 °F 3.9 °F 62% 29.94 in 10.0 mi West 18.4 mph 28.8 mph N/A   Unknown
3:35 PM 14.5 °F -2.7 °F 4.1 °F 63% 29.94 in 10.0 mi West 19.6 mph 24.2 mph N/A   Unknown
3:55 PM 14.0 °F -4.3 °F 3.7 °F 64% 29.94 in 7.0 mi West 21.9 mph 27.6 mph N/A   Unknown
4:15 PM 13.1 °F -4.6 °F 3.2 °F 65% 29.95 in 7.0 mi West 19.6 mph 26.5 mph N/A   Unknown
4:35 PM 12.9 °F -4.9 °F 3.0 °F 65% 29.95 in 10.0 mi West 19.6 mph 26.5 mph N/A   Unknown
4:53 PM 12.2 °F -4.3 °F 1.4 °F 62% 29.95 in 10.0 mi West 16.1 mph 27.6 mph N/A   Unknown
4:55 PM 12.6 °F -4.4 °F 2.7 °F 65% 29.95 in 10.0 mi West 17.3 mph 27.6 mph N/A   Unknown
5:14 PM 12.2 °F -4.3 °F 1.4 °F 62% 29.96 in 10.0 mi West 16.1 mph 26.5 mph N/A   Unknown
5:15 PM 12.0 °F -5.1 °F 2.3 °F 65% 29.96 in 10.0 mi West 17.3 mph 26.5 mph N/A   Unknown
5:33 PM 10.4 °F -6.0 °F 1.4 °F 67% 29.97 in 10.0 mi West 15.0 mph 20.7 mph N/A   Unknown
5:35 PM 11.5 °F -4.7 °F 2.1 °F 66% 29.97 in 10.0 mi West 15.0 mph 20.7 mph N/A   Unknown
5:55 PM 11.3 °F -4.3 °F 2.3 °F 67% 29.97 in 10.0 mi West 13.8 mph 20.7 mph N/A   Unknown
6:15 PM 11.3 °F -4.9 °F 2.1 °F 67% 29.98 in 10.0 mi West 15.0 mph - N/A   Unknown
6:35 PM 10.8 °F -6.7 °F 2.1 °F 68% 29.98 in 10.0 mi West 17.3 mph - N/A   Unknown
6:55 PM 10.2 °F -6.3 °F 1.4 °F 68% 29.98 in 10.0 mi West 15.0 mph 20.7 mph N/A   Unknown
7:15 PM 9.3 °F -7.4 °F 1.2 °F 70% 29.98 in 10.0 mi West 15.0 mph 19.6 mph N/A   Unknown
7:35 PM 9.1 °F -5.6 °F 1.0 °F 70% 29.98 in 10.0 mi West 11.5 mph 23.0 mph N/A   Unknown
7:55 PM 8.6 °F -9.5 °F 0.5 °F 70% 29.98 in 10.0 mi West 17.3 mph 23.0 mph N/A   Unknown
8:15 PM 8.2 °F -9.4 °F 0.5 °F 71% 29.98 in 10.0 mi West 16.1 mph - N/A   Unknown
8:35 PM 8.4 °F -8.6 °F 1.0 °F 72% 29.98 in 10.0 mi West 15.0 mph 23.0 mph N/A   Unknown
8:55 PM 8.1 °F -9.6 °F 0.9 °F 72% 29.98 in 10.0 mi West 16.1 mph 21.9 mph N/A   Unknown
9:15 PM 7.9 °F -9.9 °F 0.9 °F 73% 29.98 in 10.0 mi West 16.1 mph 20.7 mph N/A   Unknown
9:35 PM 7.5 °F -9.7 °F 0.5 °F 73% 29.98 in 10.0 mi West 15.0 mph - N/A   Unknown
9:55 PM 7.5 °F -10.9 °F 0.7 °F 74% 29.98 in 10.0 mi West 17.3 mph 23.0 mph N/A   Unknown
10:15 PM 7.3 °F -10.0 °F 0.5 °F 74% 29.99 in 10.0 mi West 15.0 mph - N/A   Unknown
10:35 PM 6.8 °F -9.3 °F 0.3 °F 75% 29.99 in 10.0 mi West 12.7 mph - N/A   Unknown
10:55 PM 6.8 °F -10.7 °F 0.3 °F 75% 29.99 in 10.0 mi West 15.0 mph - N/A   Unknown
11:15 PM 6.4 °F -10.5 °F -0.0 °F 75% 29.99 in 10.0 mi West 13.8 mph 18.4 mph N/A   Unknown
11:35 PM 6.3 °F -10.0 °F -0.0 °F 75% 29.99 in 10.0 mi West 12.7 mph - N/A   Unknown
11:55 PM 5.9 °F -11.2 °F -0.4 °F 75% 29.99 in 10.0 mi West 13.8 mph - N/A   Unknown